1519318801.03,22240,12.56,72752.0,-11.51,-34.19,-34.19,0,*62
1519318802.31,22241,12.56,72754.5,-11.51,-34.19,-34.19,0,*63
1519318803.59,22242,12.56,72754.3,-11.55,-34.19,-34.19,0,*64
1519318804.86,22243,12.56,72754.0,-11.55,-34.19,-34.13,0,*6F
1519318806.12,22244,12.56,72752.8,-11.51,-34.19,-34.13,0,*6C
1519318807.39,22245,12.56,72756.5,-11.51,-34.13,-34.01,0,*64
1519318808.67,22246,12.56,72752.8,-11.51,-34.19,-34.19,0,*64
1519318809.94,22247,12.56,72752.8,-11.51,-34.13,-34.01,0,*66
1519318811.19,22248,12.56,72752.3,-11.51,-34.13,-34.19,0,*60
1519318812.45,22249,12.56,72756.8,-11.51,-34.13,-34.31,0,*6B
1519318813.74,22250,12.56,72756.0,-11.55,-34.01,-34.19,0,*6E
1519318815.0,22251,12.56,72754.0,-11.57,-34.19,-34.19,0,*64
1519318816.26,22252,12.56,72756.0,-11.51,-34.19,-34.13,0,*6B
1519318817.54,22253,12.56,72754.5,-11.51,-34.19,-34.31,0,*6A
1519318818.8,22254,12.56,72754.8,-11.51,-34.13,-34.31,0,*67
1519318820.08,22255,12.56,72754.5,-11.51,-34.19,-34.19,0,*66
1519318821.37,22256,12.56,72752.0,-11.51,-34.19,-34.31,0,*6F
1519318822.65,22257,12.56,72754.0,-11.55,-34.31,-34.35,0,*64
1519318823.94,22258,12.56,72752.0,-11.55,-34.31,-34.31,0,*6F
1519318825.2,22259,12.56,72756.5,-11.55,-34.13,-34.31,0,*6E
1519318826.46,22260,12.56,72752.3,-11.55,-34.13,-34.19,0,*6E
1519318827.72,22261,12.56,72752.3,-11.55,-34.13,-34.31,0,*65
1519318828.99,22262,12.56,72754.5,-11.55,-34.13,-34.31,0,*66
1519318830.27,22263,12.56,72754.5,-11.55,-34.19,-34.31,0,*6D
1519318831.56,22264,12.56,72754.5,-11.55,-34.19,-34.19,0,*60
1519318832.84,22265,12.56,72754.5,-11.51,-34.19,-34.31,0,*6F
1519318834.13,22266,12.56,72754.5,-11.55,-34.19,-34.31,0,*68
1519318835.41,22267,12.56,72754.8,-11.55,-34.31,-34.31,0,*63
1519318836.7,22268,12.56,72754.0,-11.55,-34.19,-34.19,0,*6C
1519318837.98,22269,12.5,72750.3,-11.55,-34.31,-34.31,0,*6D
1519318839.25,22270,12.56,72752.3,-11.55,-34.13,-34.31,0,*65
1519318840.51,22271,12.56,72752.5,-11.55,-34.13,-34.19,0,*6E
1519318841.77,22272,12.56,72754.3,-11.55,-34.13,-34.19,0,*6D
1519318843.05,22273,12.56,72752.8,-11.55,-34.19,-34.19,0,*66
1519318844.34,22274,12.56,72754.8,-11.55,-34.19,-34.31,0,*6B
1519318845.63,22275,12.56,72754.0,-11.55,-34.31,-34.35,0,*64
1519318846.91,22276,12.56,72754.3,-11.55,-34.31,-34.35,0,*67
1519318848.2,22277,12.56,72752.8,-11.55,-34.31,-34.31,0,*62
1519318849.48,22278,12.56,72752.0,-11.55,-34.31,-34.35,0,*69
1519318850.77,22279,12.56,72752.5,-11.55,-34.19,-34.35,0,*62
1519318852.05,22280,12.56,72750.5,-11.55,-34.19,-34.35,0,*64
1519318853.32,22281,12.5,72750.0,-11.55,-34.19,-34.47,0,*60
1519318854.59,22282,12.56,72754.0,-11.55,-34.31,-34.47,0,*69
1519318855.83,22283,12.56,72754.3,-11.57,-34.35,-34.41,0,*68
1519318857.11,22284,12.56,72752.8,-11.55,-34.31,-34.35,0,*6A
1519318858.4,22285,12.56,72752.8,-11.55,-34.19,-34.35,0,*61
1519318859.66,22286,12.56,72752.3,-11.55,-34.19,-34.47,0,*67
1519318860.94,22287,12.56,72754.5,-11.55,-34.31,-34.47,0,*6C
1519318862.22,22288,12.56,72756.0,-11.55,-34.19,-34.31,0,*68
1519318863.48,22289,12.56,72752.8,-11.55,-34.13,-34.31,0,*63
1519318864.77,22290,12.56,72754.8,-11.55,-34.31,-34.31,0,*6B
1519318866.05,22291,12.56,72754.8,-11.55,-34.19,-34.35,0,*64
1519318867.29,22292,12.56,72754.5,-11.57,-34.25,-34.53,0,*6A
1519318868.53,22293,12.56,72754.8,-11.57,-34.25,-34.53,0,*6B
1519318869.74,22294,12.56,72754.8,-11.57,-34.25,-34.41,0,*6F
1519318871.0,22295,12.56,72754.8,-11.55,-34.35,-34.47,0,*6B
1519318872.29,22296,12.56,72752.0,-11.55,-34.19,-34.31,0,*67
1519318873.58,22297,12.56,72754.8,-11.55,-34.31,-34.35,0,*68
1519318874.85,22298,12.56,72752.3,-11.55,-34.31,-34.47,0,*62
1519318876.11,22299,12.56,72754.5,-11.55,-34.19,-34.47,0,*69
1519318877.41,22300,12.56,72752.5,-11.55,-34.35,-34.53,0,*63
1519318878.7,22301,12.56,72754.8,-11.55,-34.35,-34.53,0,*62
1519318879.99,22302,12.56,72750.3,-11.55,-34.31,-34.35,0,*65
1519318881.27,22303,12.56,72754.0,-11.55,-34.19,-34.35,0,*6E
1519318882.57,22304,12.56,72758.5,-11.55,-34.31,-34.53,0,*63
1519318883.85,22305,12.5,72750.5,-11.55,-34.35,-34.35,0,*66
1519318885.12,22306,12.56,72752.8,-11.55,-34.31,-34.47,0,*64
1519318886.39,22307,12.56,72754.5,-11.55,-34.19,-34.47,0,*6F
1519318887.68,22308,12.56,72756.0,-11.55,-34.19,-34.35,0,*65
1519318888.94,22309,12.56,72752.3,-11.55,-34.31,-34.47,0,*6B
1519318890.23,22310,12.56,72750.8,-11.55,-34.19,-34.35,0,*6C
1519318891.5,22311,12.56,72756.5,-11.55,-34.35,-34.47,0,*66
1519318892.77,22312,12.56,72752.5,-11.55,-34.31,-34.47,0,*61
1519318894.04,22313,12.56,72752.0,-11.55,-34.31,-34.47,0,*60
1519318895.31,22314,12.5,72752.3,-11.55,-34.31,-34.47,0,*67
1519318896.58,22315,12.5,72750.8,-11.55,-34.35,-34.47,0,*62
1519318897.85,22316,12.5,72750.0,-11.55,-34.31,-34.47,0,*65
1519318899.14,22317,12.56,72752.0,-11.55,-34.35,-34.53,0,*65
1519318900.43,22318,12.56,72758.0,-11.55,-34.35,-34.53,0,*6A
1519318901.73,22319,12.56,72752.5,-11.51,-34.31,-34.65,0,*6E
1519318903.02,22320,12.56,72754.0,-11.55,-34.35,-34.65,0,*64
1519318904.32,22321,12.56,72752.0,-11.55,-34.35,-34.65,0,*65
1519318905.61,22322,12.56,72754.3,-11.55,-34.35,-34.53,0,*63
1519318906.91,22323,12.56,72754.5,-11.55,-34.35,-34.65,0,*67
1519318908.2,22324,12.56,72752.8,-11.55,-34.31,-34.53,0,*61
1519318909.42,22325,12.56,72752.8,-11.57,-34.41,-34.77,0,*63
1519318910.66,22326,12.56,72754.3,-11.55,-34.47,-34.71,0,*62
1519318911.96,22327,12.56,72754.0,-11.55,-34.35,-34.65,0,*63
1519318913.22,22328,12.5,72750.5,-11.55,-34.35,-34.71,0,*69
1519318914.49,22329,12.5,72748.8,-11.55,-34.35,-34.71,0,*68
1519318915.7,22330,12.56,72754.0,-11.57,-34.41,-34.77,0,*67
1519318916.98,22331,12.5,72750.3,-11.55,-34.47,-34.65,0,*61
1519318918.26,22332,12.5,72754.0,-11.51,-34.47,-34.65,0,*66
1519318919.52,22333,12.56,72754.5,-11.55,-34.47,-34.83,0,*6B
1519318920.79,22334,12.56,72754.3,-11.55,-34.47,-34.83,0,*6C
1519318922.06,22335,12.5,72750.0,-11.55,-34.47,-34.83,0,*6D
1519318923.31,22336,12.56,72752.5,-11.55,-34.47,-34.71,0,*63
1519318924.58,22337,12.56,72754.0,-11.55,-34.35,-34.71,0,*67
1519318925.87,22338,12.56,72752.5,-11.55,-34.35,-34.65,0,*6D
1519318927.16,22339,12.56,72752.5,-11.55,-34.35,-34.83,0,*64
1519318928.43,22340,12.56,72752.3,-11.55,-34.35,-34.71,0,*67
1519318929.71,22341,12.5,72748.0,-11.55,-34.35,-34.83,0,*6B
1519318931.01,22342,12.56,72752.3,-11.55,-34.53,-34.83,0,*68
1519318932.25,22343,12.56,72754.8,-11.57,-34.53,-34.89,0,*61
1519318933.52,22344,12.56,72750.5,-11.55,-34.53,-34.71,0,*63
1519318934.76,22345,12.56,72752.5,-11.57,-34.53,-34.77,0,*66
1519318936.05,22346,12.56,72752.5,-11.51,-34.35,-34.53,0,*65
1519318937.35,22347,12.56,72756.3,-11.55,-34.35,-34.65,0,*65
1519318938.61,22348,12.56,72750.8,-11.55,-34.35,-34.71,0,*6F
1519318939.89,22349,12.56,72754.0,-11.55,-34.47,-34.65,0,*6E
1519318941.17,22350,12.5,72752.8,-11.55,-34.47,-34.65,0,*66
1519318942.41,22351,12.5,72750.0,-11.57,-34.53,-34.89,0,*62
1519318943.66,22352,12.56,72752.0,-11.55,-34.47,-34.71,0,*61
1519318944.93,22353,12.56,72754.0,-11.55,-34.47,-34.65,0,*65
1519318946.18,22354,12.56,72752.8,-11.57,-34.53,-34.77,0,*66
1519318947.45,22355,12.5,72750.8,-11.55,-34.47,-34.83,0,*6B
1519318948.66,22356,12.56,72754.0,-11.57,-34.59,-34.89,0,*6F
1519318949.95,22357,12.56,72752.8,-11.55,-34.53,-34.83,0,*6C
1519318951.25,22358,12.56,72752.5,-11.55,-34.53,-34.83,0,*63
1519318952.52,22359,12.56,72752.3,-11.55,-34.53,-34.71,0,*6F
1519318953.81,22360,12.56,72754.5,-11.55,-34.53,-34.83,0,*68
1519318955.08,22361,12.5,72752.3,-11.55,-34.47,-34.65,0,*64
1519318956.36,22362,12.5,72750.8,-11.55,-34.47,-34.65,0,*67
1519318957.63,22363,12.56,72754.5,-11.55,-34.47,-34.83,0,*6E
1519318958.92,22364,12.56,72754.8,-11.55,-34.53,-34.83,0,*6C
1519318960.21,22365,12.5,72754.0,-11.55,-34.53,-34.83,0,*6D
1519318961.5,22366,12.56,72754.0,-11.55,-34.53,-34.83,0,*6E
1519318962.77,22367,12.5,72748.3,-11.55,-34.53,-34.71,0,*62
1519318964.04,22368,12.56,72752.5,-11.55,-34.47,-34.83,0,*65
1519318965.31,22369,12.5,72750.3,-11.55,-34.47,-34.83,0,*64
1519318966.6,22370,12.56,72752.0,-11.55,-34.53,-34.83,0,*69
1519318967.9,22371,12.5,72750.3,-11.55,-34.53,-34.83,0,*68
1519318969.19,22372,12.5,72750.0,-11.55,-34.53,-34.83,0,*6B
1519318970.48,22373,12.5,72752.0,-11.55,-34.53,-34.83,0,*6A
1519318971.75,22374,12.56,72754.5,-11.55,-34.65,-34.89,0,*62
1519318973.0,22375,12.56,72756.5,-11.51,-34.71,-35.01,0,*63
1519318974.27,22376,12.56,72752.3,-11.51,-34.65,-35.01,0,*65
1519318975.54,22377,12.56,72752.0,-11.51,-34.65,-35.01,0,*64
1519318976.8,22378,12.5,72752.3,-11.51,-34.53,-34.89,0,*6F
1519318978.06,22379,12.5,72752.3,-11.55,-34.71,-35.01,0,*6B
1519318979.3,22380,12.56,72752.5,-11.57,-34.77,-35.07,0,*6F
1519318980.59,22381,12.56,72754.8,-11.51,-34.53,-34.83,0,*63
1519318981.83,22382,12.5,72752.8,-11.51,-34.71,-34.89,0,*6A
1519318983.09,22383,12.5,72750.5,-11.51,-34.65,-34.89,0,*6E
1519318984.36,22384,12.5,72748.5,-11.51,-34.65,-34.89,0,*69
1519318985.62,22385,12.5,72752.8,-11.51,-34.65,-34.89,0,*68
1519318986.87,22386,12.56,72754.3,-11.55,-34.71,-34.89,0,*6A
1519318988.11,22387,12.5,72750.3,-11.51,-34.71,-34.89,0,*6F
1519318989.35,22388,12.5,72750.3,-11.51,-34.89,-35.01,0,*66
1519318990.61,22389,12.5,72752.8,-11.51,-34.65,-34.89,0,*64
1519318991.9,22390,12.56,72754.8,-11.51,-34.53,-34.83,0,*63
1519318993.15,22391,12.56,72754.3,-11.49,-34.65,-34.77,0,*65
1519318994.39,22392,12.5,72752.5,-11.49,-34.59,-34.95,0,*65
1519318995.66,22393,12.5,72750.0,-11.51,-34.83,-35.01,0,*66
1519318996.92,22394,12.5,72754.5,-11.51,-34.89,-35.07,0,*6D
1519318998.18,22395,12.5,72754.0,-11.55,-34.89,-35.07,0,*68
1519318999.43,22396,12.5,72750.0,-11.55,-34.89,-35.01,0,*6D
1519319000.7,22397,12.56,72752.0,-11.55,-34.71,-35.07,0,*6D
1519319001.96,22398,12.5,72752.0,-11.55,-34.83,-34.89,0,*68
1519319003.24,22399,12.56,72752.5,-11.55,-34.83,-35.01,0,*68
1519319004.51,22400,12.5,72752.8,-11.51,-34.83,-35.01,0,*6B
1519319005.78,22401,12.56,72754.0,-11.51,-34.83,-35.01,0,*6A
1519319007.04,22402,12.5,72750.8,-11.55,-34.89,-35.07,0,*61
1519319008.31,22403,12.5,72752.3,-11.55,-34.83,-35.01,0,*6C
1519319009.58,22404,12.5,72748.8,-11.55,-34.65,-34.89,0,*62
1519319010.83,22405,12.5,72752.3,-11.51,-34.71,-35.01,0,*63
1519319012.07,22406,12.5,72752.5,-11.51,-34.89,-35.01,0,*67
1519319013.36,22407,12.56,72752.5,-11.51,-34.83,-35.07,0,*6A
1519319014.62,22408,12.56,72754.0,-11.51,-34.83,-34.89,0,*62
1519319015.86,22409,12.5,72752.3,-11.51,-34.89,-35.01,0,*68
1519319017.1,22410,12.56,72752.3,-11.51,-34.89,-35.01,0,*60
1519319018.34,22411,12.56,72752.5,-11.51,-34.89,-35.01,0,*61
1519319019.63,22412,12.5,72752.0,-11.51,-34.83,-35.07,0,*6E
1519319020.89,22413,12.56,72754.0,-11.51,-34.89,-35.07,0,*65
1519319022.14,22414,12.5,72750.8,-11.51,-34.89,-35.07,0,*62
1519319023.38,22415,12.5,72752.5,-11.51,-34.89,-35.01,0,*65
1519319024.65,22416,12.5,72748.0,-11.49,-34.83,-34.83,0,*6E
1519319025.89,22417,12.56,72750.5,-11.51,-34.89,-35.01,0,*67
1519319027.13,22418,12.5,72748.8,-11.49,-34.77,-35.07,0,*66
1519319028.39,22419,12.5,72750.0,-11.55,-34.83,-34.89,0,*66
1519319029.66,22420,12.5,72752.5,-11.51,-34.83,-35.01,0,*69
1519319030.92,22421,12.5,72750.8,-11.51,-34.89,-35.07,0,*64
1519319032.18,22422,12.56,72754.3,-11.51,-34.89,-35.07,0,*67
1519319033.45,22423,12.5,72750.0,-11.51,-34.83,-35.01,0,*6A
1519319034.69,22424,12.5,72752.8,-11.51,-34.89,-35.13,0,*64
1519319035.95,22425,12.56,72754.8,-11.51,-35.01,-35.07,0,*61
1519319037.22,22426,12.56,72754.5,-11.55,-35.07,-35.13,0,*65
1519319038.47,22427,12.5,72750.5,-11.55,-34.71,-34.89,0,*66
1519319039.71,22428,12.5,72750.5,-11.55,-34.71,-34.89,0,*69
1519319040.96,22429,12.5,72752.0,-11.51,-34.71,-34.89,0,*6C
1519319042.19,22430,12.5,72750.0,-11.55,-34.89,-34.89,0,*67
1519319043.48,22431,12.5,72750.8,-11.55,-34.83,-35.07,0,*6B
1519319044.73,22432,12.5,72754.3,-11.57,-35.07,-35.13,0,*62
1519319045.97,22433,12.5,72750.5,-11.55,-35.01,-35.13,0,*67
1519319047.21,22434,12.5,72752.0,-11.51,-34.89,-35.01,0,*66
1519319048.46,22435,12.5,72752.5,-11.51,-34.71,-35.01,0,*60
1519319049.72,22436,12.56,72754.8,-11.51,-34.89,-35.07,0,*62
1519319051.01,22437,12.5,72754.0,-11.51,-34.83,-35.07,0,*69
1519319052.28,22438,12.56,72754.8,-11.51,-34.83,-35.01,0,*60
1519319053.55,22439,12.56,72752.0,-11.51,-34.83,-35.01,0,*61
1519319054.79,22440,12.56,72752.0,-11.51,-34.71,-34.89,0,*63
1519319056.08,22441,12.5,72748.8,-11.51,-34.83,-35.07,0,*68
1519319057.34,22442,12.56,72754.3,-11.51,-34.89,-35.07,0,*61
1519319058.6,22443,12.5,72752.3,-11.51,-34.89,-35.07,0,*60
1519319059.86,22444,12.5,72752.5,-11.51,-34.89,-35.07,0,*67
1519319061.13,22445,12.56,72754.3,-11.51,-34.83,-35.01,0,*6A
1519319062.37,22446,12.5,72752.3,-11.51,-34.89,-35.01,0,*63
1519319063.6,22447,12.5,72748.0,-11.51,-34.89,-35.13,0,*61
1519319064.89,22448,12.5,72748.8,-11.51,-35.07,-35.07,0,*6C
1519319066.13,22449,12.5,72754.8,-11.51,-34.89,-35.01,0,*6C
1519319067.35,22450,12.5,72750.0,-11.49,-34.89,-35.01,0,*6D
1519319068.57,22451,12.5,72752.0,-11.49,-35.01,-35.13,0,*6E
1519319069.84,22452,12.5,72750.0,-11.55,-35.01,-35.07,0,*65
1519319071.1,22453,12.5,72752.8,-11.55,-35.01,-35.07,0,*64
1519319072.35,22454,12.5,72748.0,-11.55,-35.01,-35.13,0,*66
1519319073.64,22455,12.5,72754.8,-11.55,-34.83,-35.07,0,*69
1519319074.89,22456,12.5,72750.3,-11.57,-35.01,-35.07,0,*63
1519319076.13,22457,12.5,72750.5,-11.55,-35.01,-35.13,0,*65
1519319077.37,22458,12.5,72750.5,-11.51,-34.89,-35.01,0,*6C
1519319078.63,22459,12.5,72750.0,-11.51,-34.89,-35.07,0,*6B
1519319079.89,22460,12.5,72750.8,-11.51,-34.89,-35.07,0,*61
1519319081.15,22461,12.5,72754.5,-11.55,-34.89,-35.07,0,*64
1519319082.39,22462,12.56,72752.0,-11.55,-34.89,-35.13,0,*62
1519319083.65,22463,12.5,72750.5,-11.55,-34.89,-35.07,0,*66
1519319084.95,22464,12.5,72754.8,-11.55,-34.83,-35.07,0,*6B
1519319086.22,22465,12.5,72752.0,-11.51,-34.83,-35.01,0,*68
1519319087.51,22466,12.5,72750.5,-11.51,-34.83,-35.07,0,*6D
1519319088.75,22467,12.5,72754.3,-11.49,-34.65,-35.01,0,*6B
1519319090.0,22468,12.5,72750.0,-11.55,-34.71,-35.01,0,*6C
1519319091.3,22469,12.5,72748.5,-11.51,-34.83,-35.07,0,*62
1519319092.58,22470,12.5,72752.0,-11.51,-34.83,-35.07,0,*6A
1519319093.83,22471,12.5,72750.0,-11.51,-34.71,-35.01,0,*60
1519319095.1,22472,12.5,72752.3,-11.51,-34.83,-35.01,0,*6E
1519319096.34,22473,12.5,72748.8,-11.51,-34.89,-35.01,0,*65
1519319097.61,22474,12.5,72750.0,-11.51,-34.83,-35.13,0,*6B
1519319098.87,22475,12.5,72750.3,-11.51,-34.89,-35.07,0,*65
1519319100.11,22476,12.56,72752.8,-11.51,-35.01,-35.13,0,*62
1519319101.38,22477,12.5,72748.8,-11.55,-34.71,-35.07,0,*64
1519319102.65,22478,12.5,72752.8,-11.55,-34.89,-35.07,0,*6C
1519319103.9,22479,12.5,72752.5,-11.55,-34.71,-35.01,0,*6C
1519319105.15,22480,12.5,72750.8,-11.55,-34.71,-35.01,0,*6A
1519319106.39,22481,12.5,72754.0,-11.51,-34.71,-34.89,0,*6E
1519319107.64,22482,12.5,72752.8,-11.51,-34.71,-35.01,0,*6C
1519319108.88,22483,12.5,72754.3,-11.51,-34.89,-35.13,0,*69
1519319110.17,22484,12.5,72750.5,-11.51,-34.83,-35.07,0,*61
1519319111.4,22485,12.5,72750.3,-11.51,-34.89,-35.13,0,*6F
1519319112.65,22486,12.5,72750.5,-11.51,-34.71,-35.01,0,*68
1519319113.9,22487,12.5,72750.0,-11.55,-34.71,-35.13,0,*6E
1519319115.19,22488,12.5,72748.3,-11.55,-34.53,-34.83,0,*69
1519319116.46,22489,12.5,72754.5,-11.51,-34.83,-35.01,0,*6A
1519319117.73,22490,12.5,72748.0,-11.51,-34.71,-35.07,0,*69
1519319119.0,22491,12.5,72750.5,-11.51,-34.83,-35.01,0,*63
1519319120.27,22492,12.5,72750.5,-11.51,-34.83,-35.13,0,*63
1519319121.51,22493,12.5,72748.5,-11.51,-34.71,-34.89,0,*6D
1519319122.76,22494,12.5,72752.0,-11.49,-34.77,-34.95,0,*68
1519319124.02,22495,12.5,72750.8,-11.55,-34.83,-34.89,0,*62
1519319125.27,22496,12.5,72752.3,-11.51,-34.71,-35.01,0,*69
1519319126.56,22497,12.5,72748.8,-11.51,-34.83,-35.07,0,*63
1519319127.85,22498,12.5,72748.3,-11.51,-34.83,-35.07,0,*6C
1519319129.12,22499,12.5,72752.0,-11.51,-34.83,-35.13,0,*68
1519319130.38,22500,12.5,72748.5,-11.49,-34.83,-35.07,0,*65
1519319131.67,22501,12.5,72752.3,-11.51,-34.83,-35.07,0,*6D
1519319132.96,22502,12.5,72754.0,-11.51,-34.83,-35.07,0,*6E
1519319134.2,22503,12.5,72752.3,-11.55,-34.89,-35.13,0,*64
1519319135.47,22504,12.5,72750.0,-11.55,-34.83,-35.13,0,*69
1519319136.74,22505,12.5,72750.0,-11.55,-34.71,-35.07,0,*60
1519319138.03,22506,12.5,72754.0,-11.55,-34.83,-35.07,0,*6E
1519319139.31,22507,12.5,72750.5,-11.55,-34.83,-35.01,0,*69
1519319140.55,22508,12.5,72750.8,-11.55,-34.71,-34.89,0,*6A
1519319141.8,22509,12.5,72750.3,-11.55,-34.71,-35.01,0,*6A
1519319143.07,22510,12.5,72750.3,-11.51,-34.71,-35.07,0,*60
1519319144.36,22511,12.5,72750.0,-11.51,-34.83,-35.07,0,*6C
1519319145.63,22512,12.5,72750.0,-11.51,-34.65,-34.89,0,*60
1519319146.9,22513,12.5,72752.5,-11.51,-34.65,-35.13,0,*63
1519319148.13,22514,12.5,72750.3,-11.51,-34.89,-35.13,0,*66
1519319149.4,22515,12.5,72750.3,-11.51,-34.71,-35.07,0,*65
1519319150.69,22516,12.5,72750.0,-11.51,-34.65,-35.07,0,*63
1519319151.96,22517,12.5,72748.3,-11.55,-34.65,-34.89,0,*61
1519319153.23,22518,12.5,72750.0,-11.51,-34.65,-34.89,0,*6A
1519319154.49,22519,12.5,72748.5,-11.51,-34.53,-34.89,0,*6E
1519319155.76,22520,12.5,72748.8,-11.51,-34.71,-35.07,0,*63
1519319157.01,22521,12.5,72750.8,-11.49,-34.59,-34.95,0,*6B
1519319158.27,22522,12.5,72750.8,-11.51,-34.53,-34.89,0,*66
1519319159.54,22523,12.5,72750.0,-11.51,-34.53,-35.01,0,*66
1519319160.81,22524,12.5,72748.5,-11.51,-34.71,-35.07,0,*67
1519319162.08,22525,12.5,72750.3,-11.51,-34.71,-35.07,0,*66
1519319163.35,22526,12.5,72748.8,-11.51,-34.71,-35.07,0,*65
1519319164.6,22527,12.5,72750.0,-11.51,-34.71,-35.13,0,*61
1519319165.89,22528,12.5,72752.0,-11.51,-34.83,-35.07,0,*66
1519319167.14,22529,12.5,72754.3,-11.55,-34.71,-35.01,0,*68
1519319168.41,22530,12.5,72752.8,-11.51,-34.71,-35.07,0,*62
1519319169.65,22531,12.5,72748.5,-11.55,-34.89,-35.13,0,*65
1519319170.92,22532,12.5,72750.0,-11.55,-34.83,-35.13,0,*6C
1519319172.19,22533,12.5,72754.5,-11.55,-34.71,-35.07,0,*65
1519319173.48,22534,12.5,72754.0,-11.55,-34.65,-35.07,0,*67
1519319174.75,22535,12.5,72754.8,-11.55,-34.71,-35.07,0,*63
1519319176.03,22536,12.5,72754.5,-11.55,-34.65,-35.01,0,*63
1519319177.3,22537,12.5,72748.3,-11.55,-34.53,-35.01,0,*67
1519319178.57,22538,12.5,72750.3,-11.51,-34.65,-35.13,0,*6A
1519319179.84,22539,12.5,72752.5,-11.51,-34.71,-35.07,0,*6B
1519319181.12,22540,12.5,72750.3,-11.55,-34.65,-35.01,0,*62
1519319182.37,22541,12.5,72748.3,-11.49,-34.47,-34.95,0,*62
1519319183.64,22542,12.5,72754.5,-11.55,-34.53,-35.01,0,*65
1519319184.9,22543,12.5,72750.8,-11.51,-34.53,-34.89,0,*61
1519319186.17,22544,12.5,72750.8,-11.51,-34.53,-34.89,0,*66
1519319187.41,22545,12.5,72754.3,-11.51,-34.47,-34.89,0,*62
1519319188.68,22546,12.5,72748.8,-11.55,-34.35,-34.89,0,*60
1519319189.96,22547,12.5,72752.5,-11.55,-34.35,-34.83,0,*6B
1519319191.23,22548,12.5,72752.5,-11.55,-34.35,-34.71,0,*69
1519319192.51,22549,12.5,72752.0,-11.51,-34.35,-34.83,0,*61
1519319193.8,22550,12.5,72752.5,-11.51,-34.35,-34.83,0,*69
1519319195.08,22551,12.5,72752.0,-11.51,-34.31,-34.83,0,*6C
1519319196.32,22552,12.5,72752.3,-11.49,-34.41,-34.83,0,*61
1519319197.56,22553,12.5,72748.5,-11.51,-34.47,-34.89,0,*65
1519319198.8,22554,12.5,72750.5,-11.51,-34.47,-34.89,0,*62
1519319200.04,22555,12.5,72752.3,-11.51,-34.47,-34.89,0,*63
1519319201.31,22556,12.5,72750.5,-11.51,-34.47,-34.83,0,*6A
1519319202.56,22557,12.5,72748.8,-11.51,-34.47,-35.01,0,*60
1519319203.82,22558,12.5,72752.5,-11.51,-34.53,-34.89,0,*6B
1519319205.09,22559,12.5,72750.8,-11.51,-34.53,-35.01,0,*6B
1519319206.37,22560,12.5,72748.3,-11.49,-34.65,-34.95,0,*61
1519319207.64,22561,12.5,72748.0,-11.51,-34.53,-35.01,0,*60
1519319208.91,22562,12.5,72748.5,-11.51,-34.53,-35.01,0,*63
1519319210.18,22563,12.5,72748.3,-11.51,-34.53,-35.01,0,*62
1519319211.43,22564,12.5,72752.0,-11.49,-34.47,-34.95,0,*65
1519319212.7,22565,12.5,72754.3,-11.51,-34.71,-35.07,0,*62
1519319213.97,22566,12.5,72748.3,-11.51,-34.65,-35.01,0,*62
1519319215.26,22567,12.5,72748.8,-11.51,-34.65,-35.07,0,*65
1519319216.55,22568,12.5,72748.0,-11.51,-34.53,-35.07,0,*6F
1519319217.83,22569,12.5,72754.5,-11.55,-34.53,-35.01,0,*6C
1519319219.09,22570,12.5,72748.8,-11.51,-34.53,-34.89,0,*61
1519319220.35,22571,12.5,72750.5,-11.51,-34.31,-34.71,0,*63
1519319221.62,22572,12.5,72748.8,-11.51,-34.35,-34.89,0,*63
1519319222.87,22573,12.5,72750.8,-11.51,-34.47,-35.01,0,*66
1519319224.11,22574,12.5,72752.0,-11.49,-34.47,-34.83,0,*63
1519319225.38,22575,12.5,72750.0,-11.51,-34.53,-35.01,0,*65
1519319226.67,22576,12.5,72752.5,-11.51,-34.65,-35.07,0,*65
1519319227.94,22577,12.5,72750.0,-11.51,-34.47,-34.95,0,*6E
1519319229.23,22578,12.5,72750.3,-11.51,-34.65,-35.07,0,*6B
1519319230.5,22579,12.5,72752.8,-11.51,-34.53,-34.89,0,*68
1519319231.79,22580,12.5,72748.0,-11.55,-34.35,-34.83,0,*60
1519319233.04,22581,12.5,72752.0,-11.51,-34.47,-35.01,0,*6B
1519319234.31,22582,12.5,72752.5,-11.51,-34.53,-35.01,0,*6D
1519319235.6,22583,12.5,72752.0,-11.51,-34.53,-35.07,0,*6A
1519319236.89,22584,12.5,72752.0,-11.55,-34.65,-35.07,0,*6C
1519319238.19,22585,12.5,72754.5,-11.55,-34.53,-35.07,0,*68
1519319239.45,22586,12.5,72748.8,-11.55,-34.35,-34.89,0,*6C
1519319240.74,22587,12.5,72752.3,-11.55,-34.35,-34.83,0,*67
1519319242.03,22588,12.5,72752.0,-11.55,-34.35,-34.83,0,*68
1519319243.29,22589,12.5,72750.0,-11.55,-34.35,-34.71,0,*64
1519319244.54,22590,12.5,72750.0,-11.55,-34.47,-34.89,0,*6E
1519319245.81,22591,12.5,72754.8,-11.55,-34.53,-35.01,0,*6B
1519319247.08,22592,12.5,72752.8,-11.51,-34.53,-34.89,0,*6D
1519319248.35,22593,12.5,72752.5,-11.51,-34.53,-35.13,0,*6E
1519319249.62,22594,12.5,72752.0,-11.55,-34.53,-35.01,0,*6E
1519319250.91,22595,12.5,72754.8,-11.51,-34.53,-35.07,0,*6D
1519319252.19,22596,12.5,72748.0,-11.51,-34.53,-35.01,0,*68
1519319253.46,22597,12.5,72752.3,-11.51,-34.53,-35.01,0,*69
1519319254.73,22598,12.5,72752.5,-11.55,-34.53,-35.01,0,*62
1519319256.03,22599,12.5,72748.3,-11.55,-34.65,-35.07,0,*60
1519319257.28,22600,12.5,72752.3,-11.55,-34.71,-35.13,0,*63
1519319258.57,22601,12.5,72752.5,-11.55,-34.65,-35.07,0,*62
1519319259.87,22602,12.5,72750.8,-11.55,-34.53,-35.07,0,*64
1519319261.11,22603,12.5,72754.0,-11.57,-34.59,-35.07,0,*6D
1519319262.38,22604,12.5,72750.0,-11.57,-34.65,-34.95,0,*6F
1519319263.64,22605,12.5,72752.5,-11.55,-34.47,-35.01,0,*60
1519319264.91,22606,12.5,72754.0,-11.55,-34.53,-35.13,0,*65
1519319266.13,22607,12.5,72748.5,-11.57,-34.59,-35.13,0,*6C
1519319267.42,22608,12.5,72754.3,-11.55,-34.53,-35.07,0,*6E
1519319268.69,22609,12.5,72752.0,-11.57,-34.53,-35.07,0,*6D
1519319269.94,22610,12.5,72752.5,-11.55,-34.47,-34.89,0,*65
1519319271.18,22611,12.5,72750.0,-11.57,-34.59,-35.07,0,*6E
1519319272.43,22612,12.5,72754.3,-11.55,-34.47,-34.89,0,*67
1519319273.67,22613,12.5,72754.0,-11.55,-34.47,-34.89,0,*66
1519319274.91,22614,12.5,72748.5,-11.57,-34.71,-35.07,0,*61
1519319276.19,22615,12.5,72752.3,-11.55,-34.65,-35.13,0,*62
1519319277.46,22616,12.5,72752.0,-11.57,-34.53,-34.95,0,*69
1519319278.75,22617,12.5,72750.0,-11.55,-34.53,-35.07,0,*60
1519319280.02,22618,12.5,72752.0,-11.55,-34.53,-34.89,0,*68
1519319281.27,22619,12.5,72750.8,-11.55,-34.47,-35.01,0,*6D
1519319282.5,22620,12.5,72750.8,-11.57,-34.71,-35.13,0,*63
1519319283.72,22621,12.5,72750.3,-11.57,-34.71,-35.13,0,*62
1519319284.94,22622,12.5,72752.3,-11.57,-34.71,-35.17,0,*65
1519319286.16,22623,12.5,72754.0,-11.57,-34.59,-35.13,0,*6A
1519319287.41,22624,12.5,72750.8,-11.59,-34.71,-35.13,0,*69
1519319288.68,22625,12.5,72754.5,-11.59,-34.59,-35.07,0,*67
1519319289.9,22626,12.5,72754.0,-11.57,-34.59,-35.13,0,*6F
1519319291.12,22627,12.5,72754.5,-11.57,-34.71,-35.17,0,*60
1519319292.34,22628,12.5,72754.0,-11.57,-34.77,-35.17,0,*69
1519319293.58,22629,12.5,72754.3,-11.59,-34.71,-35.17,0,*60
1519319294.83,22630,12.5,72750.8,-11.59,-34.59,-35.13,0,*66
1519319296.08,22631,12.5,72750.3,-11.59,-34.77,-35.13,0,*6B
1519319297.32,22632,12.5,72754.8,-11.59,-34.71,-35.17,0,*6A
1519319298.57,22633,12.5,72748.8,-11.59,-34.71,-35.13,0,*6F
1519319299.82,22634,12.5,72752.3,-11.59,-34.77,-35.13,0,*6E
1519319301.07,22635,12.5,72756.0,-11.59,-34.77,-35.13,0,*6F
1519319302.32,22636,12.5,72754.8,-11.59,-34.59,-35.13,0,*60
1519319303.58,22637,12.5,72750.3,-11.59,-34.77,-35.07,0,*68